Location: Miami, Florida
(25.6830°N, 80.1700°W)
Time: 23:52:54
(UTC-04:00)

OTV 5 (USA 277) - Pass Details

Date: 10 November 2017
Orbit: 404 x 417 km, 43.0° (Epoch: 07 September)

Event Time Altitude Azimuth Distance (km) Brightness Sun altitude
Exits shadow 06:21:54 10° 355° (N) 1,451 ? -16.7°
Drops below altitude 10° 06:22:00 10° 357° (N) 1,463 ? -16.7°
Sets 06:25:18 0° 33° (NNE) 2,312 ? -16.0°
